| time (UTC) | temp F | wind direction | speed MPH | gust MPH | rain 1hr in | rain 24hr in | rain mn in | humidity % | barometer mb |
| 20260506073047 | 41 | 17 | 4.0 | 9.0 | 0.00 | 0.00 | 0.00 | 83 | 1011.0 |
| 20260506072543 | 41 | 344 | 3.0 | 9.0 | 0.00 | 0.00 | 0.00 | 83 | 1011.0 |
| 20260506072043 | 41 | 348 | 3.0 | 8.0 | 0.00 | 0.00 | 0.00 | 83 | 1010.8 |
| 20260506071543 | 41 | 325 | 4.0 | 9.0 | 0.00 | 0.00 | 0.00 | 84 | 1010.8 |
| 20260506071042 | 41 | 355 | 5.0 | 9.0 | 0.00 | 0.00 | 0.00 | 85 | 1010.7 |
| 20260506070541 | 41 | 9 | 4.0 | 10.0 | 0.00 | 0.00 | 0.00 | 84 | 1010.6 |
| 20260506062036 | 40 | 355 | 2.0 | 5.0 | 0.00 | 0.00 | 0.00 | 86 | 1010.7 |
| 20260506061536 | 40 | 360 | 2.0 | 9.0 | 0.00 | 0.00 | 0.00 | 87 | 1010.8 |
| 20260506061035 | 40 | 355 | 2.0 | 9.0 | 0.00 | 0.00 | 0.00 | 87 | 1011.1 |
| 20260506060533 | 40 | 336 | 2.0 | 7.0 | 0.00 | 0.00 | 0.00 | 88 | 1011.1 |
| 20260506051016 | 40 | 326 | 0.0 | 7.0 | 0.00 | 0.00 | 0.00 | 83 | 1011.3 |
| 20260506050515 | 40 | 327 | 1.0 | 7.0 | 0.00 | 0.00 | 0.00 | 83 | 1011.1 |
| 20260506045013 | 40 | 267 | 1.0 | 7.0 | 0.00 | 0.00 | 0.00 | 82 | 1011.0 |
| 20260506044513 | 40 | 266 | 2.0 | 7.0 | 0.00 | 0.00 | 0.00 | 83 | 1011.1 |
| 20260506044012 | 40 | 262 | 2.0 | 8.0 | 0.00 | 0.00 | 0.00 | 82 | 1011.1 |
| 20260506043516 | 40 | 275 | 2.0 | 8.0 | 0.00 | 0.00 | 0.00 | 82 | 1011.1 |
| 20260506043016 | 40 | 273 | 2.0 | 8.0 | 0.00 | 0.00 | 0.00 | 82 | 1011.0 |
| 20260506042513 | 40 | 275 | 2.0 | 8.0 | 0.00 | 0.00 | 0.00 | 82 | 1011.2 |
| 20260506042010 | 40 | 264 | 4.0 | 8.0 | 0.00 | 0.00 | 0.00 | 82 | 1011.1 |
| 20260506041509 | 40 | 275 | 1.0 | 7.0 | 0.00 | 0.00 | 0.00 | 83 | 1011.1 |
| 20260506041008 | 40 | 275 | 2.0 | 7.0 | 0.00 | 0.00 | 0.00 | 82 | 1011.1 |
| 20260506040507 | 40 | 281 | 2.0 | 7.0 | 0.00 | 0.00 | 0.00 | 83 | 1011.1 |
| 20260506040150 | 40 | 283 | 0.0 | 5.0 | 0.00 | 0.00 | 0.00 | 82 | 1011.0 |
| 20260506035549 | 40 | 283 | 1.0 | 4.0 | 0.00 | 0.00 | 0.00 | 82 | 1010.9 |
| 20260506035149 | 40 | 283 | 0.0 | 6.0 | 0.00 | 0.00 | 0.00 | 82 | 1010.9 |
| 20260506034552 | 40 | 282 | 2.0 | 6.0 | 0.00 | 0.00 | 0.00 | 81 | 1011.0 |
| 20260506034047 | 40 | 284 | 0.0 | 6.0 | 0.00 | 0.00 | 0.00 | 81 | 1010.9 |
| 20260506033547 | 40 | 289 | 1.0 | 6.0 | 0.00 | 0.00 | 0.00 | 81 | 1011.0 |
| 20260506033035 | 40 | 291 | 0.0 | 4.0 | 0.00 | 0.00 | 0.00 | 81 | 1010.9 |
| 20260506032534 | 40 | 291 | 0.0 | 6.0 | 0.00 | 0.00 | 0.00 | 80 | 1010.9 |
| 20260506032035 | 40 | 292 | 0.0 | 5.0 | 0.00 | 0.00 | 0.00 | 80 | 1010.9 |
| 20260506031533 | 40 | 292 | 0.0 | 7.0 | 0.00 | 0.00 | 0.00 | 79 | 1011.0 |
| 20260506031034 | 40 | 292 | 1.0 | 7.0 | 0.00 | 0.00 | 0.00 | 79 | 1011.0 |
| 20260506030532 | 40 | 300 | 0.0 | 2.0 | 0.00 | 0.00 | 0.00 | 78 | 1010.9 |
| 20260506030030 | 40 | 300 | 0.0 | 6.0 | 0.00 | 0.00 | 0.00 | 77 | 1010.9 |
| 20260506025529 | 40 | 300 | 1.0 | 7.0 | 0.00 | 0.00 | 0.00 | 77 | 1010.9 |
| 20260506025028 | 40 | 303 | 3.0 | 7.0 | 0.00 | 0.00 | 0.00 | 77 | 1010.8 |
| 20260506024535 | 40 | 304 | 1.0 | 5.0 | 0.00 | 0.00 | 0.00 | 76 | 1010.9 |
| 20260506024027 | 41 | 304 | 2.0 | 6.0 | 0.00 | 0.00 | 0.00 | 76 | 1010.9 |
| 20260506023529 | 41 | 305 | 3.0 | 6.0 | 0.00 | 0.00 | 0.00 | 76 | 1010.8 |
| 20260506023026 | 41 | 306 | 2.0 | 7.0 | 0.00 | 0.00 | 0.00 | 76 | 1010.8 |
| 20260506022525 | 41 | 304 | 2.0 | 7.0 | 0.00 | 0.00 | 0.00 | 76 | 1010.9 |
| 20260506022025 | 41 | 307 | 2.0 | 6.0 | 0.00 | 0.00 | 0.00 | 75 | 1010.9 |
| 20260506021541 | 41 | 307 | 3.0 | 6.0 | 0.00 | 0.00 | 0.00 | 75 | 1010.8 |
| 20260506021023 | 41 | 304 | 1.0 | 7.0 | 0.00 | 0.00 | 0.00 | 75 | 1010.8 |
| 20260506020526 | 41 | 302 | 3.0 | 7.0 | 0.00 | 0.00 | 0.00 | 74 | 1010.8 |
| 20260506020022 | 41 | 292 | 3.0 | 8.0 | 0.00 | 0.00 | 0.00 | 74 | 1010.7 |
| 20260506015522 | 41 | 319 | 3.0 | 8.0 | 0.00 | 0.00 | 0.00 | 74 | 1010.7 |
| 20260506015021 | 41 | 306 | 2.0 | 6.0 | 0.00 | 0.00 | 0.00 | 74 | 1010.7 |
| 20260506014524 | 41 | 304 | 2.0 | 7.0 | 0.00 | 0.00 | 0.00 | 74 | 1010.7 |
| 20260506014018 | 41 | 298 | 2.0 | 8.0 | 0.00 | 0.00 | 0.00 | 74 | 1010.5 |
| 20260506013517 | 41 | 323 | 2.0 | 8.0 | 0.00 | 0.00 | 0.00 | 74 | 1010.4 |
| 20260506013005 | 41 | 327 | 3.0 | 8.0 | 0.00 | 0.00 | 0.00 | 74 | 1010.2 |
| 20260506012505 | 41 | 273 | 2.0 | 7.0 | 0.00 | 0.00 | 0.00 | 74 | 1010.2 |
| 20260506012003 | 41 | 265 | 2.0 | 7.0 | 0.00 | 0.00 | 0.00 | 74 | 1010.1 |
| 20260506011508 | 41 | 250 | 2.0 | 7.0 | 0.00 | 0.00 | 0.00 | 74 | 1010.1 |
| 20260506011002 | 42 | 273 | 3.0 | 8.0 | 0.00 | 0.00 | 0.00 | 74 | 1010.0 |
| 20260506010501 | 42 | 277 | 2.0 | 8.0 | 0.00 | 0.00 | 0.00 | 73 | 1010.0 |
| 20260506010000 | 42 | 279 | 4.0 | 11.0 | 0.00 | 0.00 | 0.00 | 73 | 1010.0 |
| 20260506005600 | 42 | 263 | 5.0 | 11.0 | 0.00 | 0.00 | 0.00 | 72 | 1009.9 |
| 20260506005059 | 42 | 252 | 5.0 | 9.0 | 0.00 | 0.00 | 0.00 | 71 | 1009.8 |
| 20260506004603 | 42 | 256 | 4.0 | 8.0 | 0.00 | 0.00 | 0.00 | 72 | 1009.8 |
| 20260506004058 | 42 | 263 | 3.0 | 8.0 | 0.00 | 0.00 | 0.00 | 72 | 1009.8 |
| 20260506003601 | 42 | 252 | 3.0 | 8.0 | 0.00 | 0.00 | 0.00 | 72 | 1009.7 |
| 20260506003103 | 42 | 254 | 4.0 | 8.0 | 0.00 | 0.00 | 0.00 | 71 | 1009.7 |
| 20260506002555 | 42 | 304 | 4.0 | 8.0 | 0.00 | 0.00 | 0.00 | 71 | 1009.6 |
| 20260506002055 | 42 | 260 | 3.0 | 9.0 | 0.00 | 0.00 | 0.00 | 71 | 1009.8 |
| 20260506001606 | 42 | 250 | 2.0 | 9.0 | 0.00 | 0.00 | 0.00 | 71 | 1009.7 |
| 20260506001053 | 43 | 265 | 1.0 | 8.0 | 0.00 | 0.00 | 0.00 | 70 | 1009.9 |
| 20260506000554 | 43 | 275 | 3.0 | 7.0 | 0.00 | 0.00 | 0.00 | 70 | 1009.9 |
| 20260506000053 | 43 | 257 | 2.0 | 9.0 | 0.00 | 0.00 | 0.00 | 70 | 1009.9 |
| 20260505235552 | 43 | 252 | 3.0 | 9.0 | 0.00 | 0.00 | 0.00 | 69 | 1009.8 |
| 20260505235051 | 43 | 241 | 3.0 | 9.0 | 0.00 | 0.00 | 0.00 | 69 | 1009.7 |
| 20260505234608 | 43 | 292 | 3.0 | 9.0 | 0.00 | 0.00 | 0.00 | 69 | 1009.6 |
| 20260505234049 | 43 | 260 | 4.0 | 9.0 | 0.00 | 0.00 | 0.00 | 68 | 1009.7 |
| 20260505233550 | 44 | 244 | 2.0 | 9.0 | 0.00 | 0.00 | 0.00 | 69 | 1009.7 |
| 20260505233050 | 44 | 258 | 2.0 | 9.0 | 0.00 | 0.00 | 0.00 | 68 | 1009.7 |
| 20260505232535 | 44 | 258 | 4.0 | 9.0 | 0.00 | 0.00 | 0.00 | 67 | 1009.6 |
| 20260505232032 | 44 | 257 | 2.0 | 9.0 | 0.00 | 0.00 | 0.00 | 67 | 1009.6 |
| 20260505231530 | 44 | 279 | 3.0 | 11.0 | 0.00 | 0.00 | 0.00 | 66 | 1009.6 |
| 20260505231026 | 44 | 259 | 4.0 | 13.0 | 0.00 | 0.00 | 0.00 | 66 | 1009.6 |
| 20260505230526 | 45 | 251 | 4.0 | 13.0 | 0.00 | 0.00 | 0.00 | 67 | 1009.5 |
| 20260505230025 | 45 | 257 | 4.0 | 9.0 | 0.00 | 0.00 | 0.00 | 67 | 1009.5 |
| 20260505225507 | 45 | 283 | 0.0 | 8.0 | 0.00 | 0.00 | 0.00 | 66 | 1009.5 |
| 20260505225007 | 46 | 286 | 2.0 | 8.0 | 0.00 | 0.00 | 0.00 | 66 | 1009.5 |
| 20260505224510 | 46 | 273 | 2.0 | 10.0 | 0.00 | 0.00 | 0.00 | 65 | 1009.4 |
| 20260505224006 | 46 | 278 | 5.0 | 10.0 | 0.00 | 0.00 | 0.00 | 66 | 1009.6 |
| 20260505223506 | 47 | 226 | 3.0 | 10.0 | 0.00 | 0.00 | 0.00 | 67 | 1009.7 |
| 20260505223007 | 47 | 282 | 5.0 | 10.0 | 0.00 | 0.00 | 0.00 | 65 | 1009.6 |
| 20260505222554 | 47 | 264 | 2.0 | 14.0 | 0.00 | 0.00 | 0.00 | 64 | 1009.7 |
| 20260505222054 | 48 | 267 | 5.0 | 14.0 | 0.00 | 0.00 | 0.00 | 62 | 1009.8 |
| 20260505221554 | 48 | 261 | 2.0 | 10.0 | 0.00 | 0.00 | 0.00 | 63 | 1009.7 |
| 20260505221053 | 48 | 311 | 1.0 | 10.0 | 0.00 | 0.00 | 0.00 | 63 | 1009.6 |
| 20260505220552 | 48 | 286 | 1.0 | 12.0 | 0.00 | 0.00 | 0.00 | 66 | 1009.7 |
| 20260505220051 | 47 | 269 | 3.0 | 9.0 | 0.00 | 0.00 | 0.00 | 68 | 1009.6 |
| 20260505215553 | 47 | 235 | 4.0 | 10.0 | 0.00 | 0.00 | 0.00 | 65 | 1009.6 |
| 20260505215051 | 47 | 261 | 5.0 | 10.0 | 0.00 | 0.00 | 0.00 | 65 | 1009.4 |
| 20260505214557 | 47 | 279 | 5.0 | 10.0 | 0.00 | 0.00 | 0.00 | 64 | 1009.4 |
| 20260505214051 | 48 | 232 | 2.0 | 10.0 | 0.00 | 0.00 | 0.00 | 65 | 1009.4 |
| 20260505213550 | 48 | 250 | 4.0 | 11.0 | 0.00 | 0.00 | 0.00 | 61 | 1009.2 |
| 20260505213053 | 48 | 272 | 4.0 | 11.0 | 0.00 | 0.00 | 0.00 | 62 | 1009.2 |
| 20260505212549 | 48 | 289 | 6.0 | 12.0 | 0.00 | 0.00 | 0.00 | 61 | 1009.3 |
| 20260505212050 | 48 | 296 | 3.0 | 12.0 | 0.00 | 0.00 | 0.00 | 61 | 1009.3 |
| 20260505211556 | 48 | 230 | 1.0 | 11.0 | 0.00 | 0.00 | 0.00 | 65 | 1009.4 |
| 20260505211046 | 47 | 271 | 2.0 | 11.0 | 0.00 | 0.00 | 0.00 | 65 | 1009.3 |
| 20260505210545 | 47 | 260 | 4.0 | 11.0 | 0.00 | 0.00 | 0.00 | 67 | 1009.2 |
| 20260505210043 | 46 | 277 | 3.0 | 12.0 | 0.00 | 0.00 | 0.00 | 67 | 1009.1 |
| 20260505205542 | 46 | 282 | 4.0 | 12.0 | 0.00 | 0.00 | 0.00 | 68 | 1009.0 |
| 20260505205040 | 46 | 233 | 6.0 | 12.0 | 0.00 | 0.00 | 0.00 | 68 | 1009.1 |
| 20260505204539 | 46 | 267 | 5.0 | 11.0 | 0.00 | 0.00 | 0.00 | 70 | 1009.1 |
| 20260505204037 | 46 | 266 | 5.0 | 11.0 | 0.00 | 0.00 | 0.00 | 69 | 1008.9 |
| 20260505203536 | 45 | 300 | 3.0 | 12.0 | 0.00 | 0.00 | 0.00 | 70 | 1008.9 |
| 20260505203049 | 46 | 269 | 6.0 | 12.0 | 0.00 | 0.00 | 0.00 | 68 | 1008.9 |
| 20260505202518 | 45 | 301 | 3.0 | 9.0 | 0.00 | 0.00 | 0.00 | 68 | 1008.9 |
| 20260505202017 | 45 | 284 | 1.0 | 12.0 | 0.00 | 0.00 | 0.00 | 71 | 1008.9 |
| 20260505201515 | 45 | 338 | 5.0 | 12.0 | 0.00 | 0.00 | 0.00 | 70 | 1008.8 |
| 20260505201018 | 45 | 231 | 4.0 | 9.0 | 0.00 | 0.00 | 0.00 | 71 | 1008.8 |
| 20260505200514 | 45 | 275 | 7.0 | 10.0 | 0.00 | 0.00 | 0.00 | 71 | 1008.9 |
| 20260505191037 | 46 | 244 | 7.0 | 19.0 | 0.00 | 0.00 | 0.00 | 67 | 1007.9 |
| 20260505190535 | 46 | 271 | 7.0 | 20.0 | 0.00 | 0.00 | 0.00 | 68 | 1007.9 |
| 20260505190035 | 46 | 299 | 7.0 | 20.0 | 0.00 | 0.00 | 0.00 | 69 | 1007.8 |
| 20260505185537 | 46 | 258 | 7.0 | 19.0 | 0.00 | 0.00 | 0.00 | 67 | 1007.8 |
| 20260505185033 | 46 | 274 | 8.0 | 19.0 | 0.00 | 0.00 | 0.00 | 66 | 1007.6 |
| 20260505184544 | 45 | 289 | 7.0 | 18.0 | 0.00 | 0.00 | 0.00 | 67 | 1007.6 |
| 20260505184016 | 45 | 287 | 10.0 | 18.0 | 0.00 | 0.00 | 0.00 | 68 | 1007.4 |
| 20260505183512 | 45 | 269 | 7.0 | 18.0 | 0.00 | 0.00 | 0.00 | 70 | 1007.4 |
| 20260505183014 | 45 | 313 | 6.0 | 19.0 | 0.00 | 0.00 | 0.00 | 71 | 1007.4 |
| 20260505182512 | 45 | 276 | 8.0 | 19.0 | 0.00 | 0.00 | 0.00 | 69 | 1007.6 |
| 20260505182012 | 45 | 275 | 7.0 | 15.0 | 0.00 | 0.00 | 0.00 | 71 | 1007.6 |
| 20260505181511 | 45 | 271 | 5.0 | 14.0 | 0.00 | 0.00 | 0.00 | 73 | 1007.4 |
| 20260505181059 | 45 | 342 | 6.0 | 14.0 | 0.00 | 0.00 | 0.00 | 72 | 1007.5 |
| 20260505180558 | 45 | 253 | 7.0 | 14.0 | 0.00 | 0.00 | 0.00 | 73 | 1007.3 |
| 20260505180104 | 45 | 231 | 5.0 | 14.0 | 0.00 | 0.00 | 0.00 | 73 | 1007.3 |
| 20260505175557 | 45 | 285 | 5.0 | 15.0 | 0.00 | 0.00 | 0.00 | 72 | 1007.3 |
| 20260505175104 | 45 | 288 | 7.0 | 15.0 | 0.00 | 0.00 | 0.00 | 71 | 1007.3 |
| 20260505174556 | 46 | 242 | 4.0 | 16.0 | 0.00 | 0.00 | 0.00 | 72 | 1007.3 |
| 20260505174056 | 46 | 286 | 8.0 | 16.0 | 0.00 | 0.00 | 0.00 | 71 | 1007.2 |
| 20260505173558 | 46 | 310 | 7.0 | 19.0 | 0.00 | 0.00 | 0.00 | 71 | 1007.1 |
| 20260505173053 | 46 | 245 | 5.0 | 19.0 | 0.00 | 0.00 | 0.00 | 70 | 1007.0 |
| 20260505172556 | 46 | 266 | 5.0 | 16.0 | 0.00 | 0.00 | 0.00 | 70 | 1006.9 |
| 20260505172053 | 46 | 218 | 5.0 | 15.0 | 0.00 | 0.00 | 0.00 | 70 | 1006.8 |
| 20260505171555 | 46 | 254 | 6.0 | 15.0 | 0.00 | 0.00 | 0.00 | 71 | 1006.8 |
| 20260505171050 | 46 | 300 | 4.0 | 22.0 | 0.00 | 0.00 | 0.00 | 72 | 1006.8 |
| 20260505170551 | 46 | 250 | 9.0 | 22.0 | 0.00 | 0.00 | 0.00 | 71 | 1006.7 |
| 20260505170048 | 46 | 283 | 6.0 | 16.0 | 0.00 | 0.00 | 0.00 | 72 | 1006.7 |
| 20260505165547 | 46 | 226 | 7.0 | 16.0 | 0.00 | 0.00 | 0.00 | 73 | 1006.7 |
| 20260505165046 | 46 | 206 | 7.0 | 18.0 | 0.00 | 0.00 | 0.00 | 75 | 1006.6 |
| 20260505164546 | 46 | 279 | 7.0 | 18.0 | 0.00 | 0.00 | 0.00 | 75 | 1006.6 |
| 20260505164047 | 45 | 254 | 6.0 | 13.0 | 0.00 | 0.00 | 0.00 | 76 | 1006.7 |
| 20260505163545 | 45 | 279 | 5.0 | 11.0 | 0.00 | 0.00 | 0.00 | 78 | 1006.8 |
| 20260505163042 | 44 | 235 | 6.0 | 12.0 | 0.00 | 0.00 | 0.00 | 80 | 1006.8 |
| 20260505162543 | 44 | 250 | 5.0 | 10.0 | 0.00 | 0.00 | 0.00 | 80 | 1006.8 |
| 20260505162040 | 44 | 279 | 4.0 | 11.0 | 0.00 | 0.00 | 0.00 | 81 | 1006.8 |
| 20260505161541 | 44 | 248 | 5.0 | 11.0 | 0.00 | 0.00 | 0.00 | 80 | 1006.6 |
| 20260505161024 | 44 | 273 | 3.0 | 11.0 | 0.00 | 0.00 | 0.00 | 81 | 1006.5 |
| 20260505160521 | 44 | 266 | 5.0 | 11.0 | 0.00 | 0.00 | 0.00 | 81 | 1006.5 |
| 20260505153007 | 44 | 307 | 4.0 | 12.0 | 0.00 | 0.00 | 0.00 | 81 | 1005.9 |
| 20260505152507 | 44 | 338 | 4.0 | 13.0 | 0.00 | 0.00 | 0.00 | 81 | 1006.1 |
| 20260505152005 | 44 | 271 | 5.0 | 13.0 | 0.00 | 0.00 | 0.00 | 80 | 1006.0 |
| 20260505151503 | 44 | 266 | 6.0 | 10.0 | 0.00 | 0.00 | 0.00 | 79 | 1005.8 |
| 20260505151001 | 44 | 281 | 3.0 | 11.0 | 0.00 | 0.00 | 0.00 | 79 | 1005.6 |
| 20260505150600 | 44 | 332 | 6.0 | 12.0 | 0.00 | 0.00 | 0.00 | 78 | 1005.2 |
| 20260505150502 | 44 | 313 | 6.0 | 12.0 | 0.00 | 0.00 | 0.00 | 78 | 1005.1 |
| 20260505140551 | 44 | 333 | 3.0 | 14.0 | 0.00 | 0.00 | 0.00 | 81 | 1004.1 |
| 20260505125003 | 43 | 321 | 5.0 | 13.0 | 0.00 | 0.00 | 0.00 | 84 | 1003.4 |
| 20260505124506 | 44 | 321 | 5.0 | 11.0 | 0.00 | 0.00 | 0.00 | 83 | 1003.5 |
| 20260505124102 | 44 | 345 | 3.0 | 11.0 | 0.00 | 0.00 | 0.00 | 84 | 1003.4 |
| 20260505123542 | 44 | 330 | 5.0 | 10.0 | 0.00 | 0.00 | 0.00 | 83 | 1003.3 |
| 20260505123043 | 44 | 321 | 4.0 | 13.0 | 0.00 | 0.00 | 0.00 | 83 | 1003.1 |
| 20260505122542 | 44 | 323 | 5.0 | 13.0 | 0.00 | 0.00 | 0.00 | 83 | 1003.0 |
| 20260505122040 | 44 | 336 | 4.0 | 12.0 | 0.00 | 0.00 | 0.00 | 84 | 1002.9 |
| 20260505121546 | 44 | 355 | 5.0 | 13.0 | 0.00 | 0.00 | 0.00 | 83 | 1002.8 |
| 20260505121039 | 44 | 311 | 4.0 | 12.0 | 0.00 | 0.00 | 0.00 | 83 | 1002.6 |
| 20260505120519 | 44 | 327 | 5.0 | 10.0 | 0.00 | 0.00 | 0.00 | 84 | 1002.6 |
| 20260505120023 | 44 | 29 | 6.0 | 10.0 | 0.00 | 0.00 | 0.00 | 84 | 1002.4 |
| 20260505115518 | 44 | 327 | 5.0 | 11.0 | 0.00 | 0.00 | 0.00 | 84 | 1002.3 |
| 20260505115016 | 44 | 345 | 4.0 | 10.0 | 0.00 | 0.00 | 0.00 | 85 | 1002.2 |
| 20260505114515 | 44 | 355 | 4.0 | 9.0 | 0.00 | 0.00 | 0.00 | 84 | 1002.0 |
| 20260505114015 | 44 | 355 | 4.0 | 10.0 | 0.00 | 0.00 | 0.00 | 85 | 1001.8 |
| 20260505113503 | 44 | 17 | 6.0 | 10.0 | 0.00 | 0.00 | 0.00 | 85 | 1001.7 |
| 20260505113002 | 44 | 360 | 5.0 | 11.0 | 0.00 | 0.00 | 0.00 | 85 | 1001.7 |
| 20260505112502 | 44 | 318 | 3.0 | 11.0 | 0.00 | 0.00 | 0.00 | 86 | 1001.9 |
| 20260505112100 | 44 | 26 | 4.0 | 9.0 | 0.00 | 0.00 | 0.00 | 86 | 1001.9 |
| 20260505111601 | 44 | 20 | 3.0 | 10.0 | 0.00 | 0.00 | 0.00 | 86 | 1001.8 |
| 20260505111058 | 44 | 325 | 5.0 | 12.0 | 0.00 | 0.00 | 0.00 | 86 | 1001.6 |
| 20260505110556 | 44 | 332 | 5.0 | 12.0 | 0.00 | 0.00 | 0.00 | 86 | 1001.6 |
| 20260505102050 | 45 | 360 | 6.0 | 13.0 | 0.00 | 0.00 | 0.00 | 86 | 1000.7 |
| 20260505101555 | 45 | 12 | 4.0 | 11.0 | 0.00 | 0.00 | 0.00 | 86 | 1000.8 |
| 20260505101049 | 45 | 9 | 4.0 | 9.0 | 0.00 | 0.00 | 0.00 | 87 | 1000.6 |
| 20260505100550 | 45 | 344 | 4.0 | 9.0 | 0.00 | 0.00 | 0.00 | 87 | 1000.6 |
| 20260505100048 | 45 | 360 | 4.0 | 11.0 | 0.00 | 0.00 | 0.00 | 87 | 1000.6 |
| 20260505095546 | 45 | 9 | 5.0 | 11.0 | 0.00 | 0.00 | 0.00 | 87 | 1000.5 |
| 20260505095050 | 45 | 355 | 5.0 | 11.0 | 0.00 | 0.00 | 0.00 | 87 | 1000.4 |
| 20260505094552 | 45 | 9 | 5.0 | 10.0 | 0.00 | 0.00 | 0.00 | 87 | 1000.3 |
| 20260505094044 | 46 | 10 | 4.0 | 13.0 | 0.00 | 0.00 | 0.00 | 87 | 1000.3 |
| 20260505093526 | 46 | 360 | 5.0 | 9.0 | 0.00 | 0.00 | 0.00 | 88 | 1000.1 |
| 20260505093033 | 46 | 320 | 4.0 | 11.0 | 0.00 | 0.00 | 0.00 | 88 | 999.9 |
| 20260505092525 | 46 | 360 | 5.0 | 10.0 | 0.00 | 0.00 | 0.00 | 89 | 999.9 |
| 20260505092025 | 46 | 344 | 4.0 | 8.0 | 0.00 | 0.00 | 0.00 | 90 | 999.9 |
| 20260505091524 | 46 | 336 | 4.0 | 8.0 | 0.00 | 0.00 | 0.00 | 89 | 999.8 |
| 20260505091023 | 46 | 9 | 4.0 | 8.0 | 0.00 | 0.00 | 0.00 | 90 | 999.7 |
| 20260505090505 | 46 | 338 | 2.0 | 8.0 | 0.00 | 0.00 | 0.00 | 90 | 999.6 |
| 20260505090006 | 45 | 343 | 2.0 | 5.0 | 0.00 | 0.00 | 0.00 | 90 | 999.5 |
| 20260505085506 | 45 | 340 | 2.0 | 9.0 | 0.00 | 0.00 | 0.00 | 91 | 999.6 |
| 20260505085006 | 45 | 336 | 3.0 | 9.0 | 0.00 | 0.00 | 0.00 | 91 | 999.6 |
| 20260505084513 | 45 | 345 | 3.0 | 7.0 | 0.00 | 0.00 | 0.00 | 90 | 999.4 |
| 20260505084004 | 45 | 342 | 4.0 | 8.0 | 0.00 | 0.00 | 0.00 | 90 | 999.2 |
| 20260505083551 | 45 | 9 | 3.0 | 8.0 | 0.00 | 0.00 | 0.00 | 91 | 999.2 |
| 20260505083104 | 45 | 360 | 4.0 | 7.0 | 0.00 | 0.00 | 0.00 | 92 | 999.5 |
| 20260505082552 | 45 | 351 | 2.0 | 6.0 | 0.00 | 0.00 | 0.00 | 92 | 999.3 |
| 20260505082052 | 45 | 351 | 2.0 | 6.0 | 0.00 | 0.00 | 0.00 | 93 | 999.4 |
| 20260505081551 | 44 | 347 | 3.0 | 7.0 | 0.00 | 0.00 | 0.00 | 93 | 999.3 |
| 20260505081052 | 44 | 347 | 3.0 | 8.0 | 0.00 | 0.00 | 0.00 | 93 | 999.2 |
| 20260505080549 | 44 | 343 | 4.0 | 7.0 | 0.00 | 0.00 | 0.00 | 92 | 999.0 |
| 20260505080050 | 44 | 9 | 4.0 | 8.0 | 0.00 | 0.00 | 0.00 | 92 | 999.1 |